Location: Bergen
(60.3910°N, 5.3250°E)
Time: 15:48:13
(UTC+02:00)

ISS - Visible Passes

Search period start: 09 May 2021 00:00
Search period end: 19 May 2021 00:00
Orbit: 418 x 421 km, 51.6° (Epoch: 09 May)

Date Brightness Start Highest point End Pass type
(mag) Time Alt. Az. Time Alt. Az. Time Alt. Az.
09 May -2.1 03:36:22 12° SSW 03:38:19 18° S 03:40:43 10° SE visible
10 May -2.1 02:50:22 16° S 02:51:05 17° SSE 02:53:21 10° SE visible
11 May -1.8 02:04:20 15° SSE 02:04:20 15° SSE 02:05:52 10° SE visible
11 May -2.2 03:37:23 10° SW 03:39:51 19° S 03:42:20 10° SE visible
12 May -2.2 02:51:11 15° SSW 02:52:36 19° S 02:55:04 10° SE visible
13 May -2.3 02:05:00 18° S 02:05:21 18° S 02:07:46 10° SE visible
13 May -2.1 03:39:07 10° SW 03:41:22 17° SSW 03:43:38 10° SSE visible
14 May -2.1 01:18:36 16° SSE 01:18:36 16° SSE 01:20:23 10° SE visible
14 May -2.2 02:51:44 10° SW 02:54:08 18° S 02:56:32 10° SE visible
15 May -2.1 00:28:53 10° SSW 00:30:53 15° SSE 00:32:54 10° SE visible
15 May -2.3 02:04:24 10° SW 02:06:52 19° S 02:09:20 10° SE visible
15 May -1.8 03:41:14 10° SW 03:42:49 13° SSW 03:44:23 10° S visible
15 May -1.9 23:42:05 10° S 23:43:40 13° SSE 23:45:15 10° SE visible
16 May -2.3 01:17:08 10° SW 01:19:36 19° S 01:22:04 10° SE visible
16 May -2.0 02:53:35 10° SW 02:55:35 15° SSW 02:57:35 10° SSE visible
17 May -2.3 00:29:56 10° SW 00:32:20 18° S 00:34:44 10° SE visible
17 May -2.2 02:06:06 10° SW 02:08:21 17° SSW 02:10:36 10° SSE visible
17 May -2.1 23:42:50 10° SSW 23:45:05 17° SSE 23:47:20 10° SE visible
18 May -2.2 01:18:42 10° SW 01:21:06 18° S 01:22:50 13° SSE visible
